Alma, MI

10:50 AM EDT on October 20, 2017 (GMT -0400)
Gratiot Community

Weather History for KAMN - November, 2012

Change the Weather History Date:

Friday, November 9, 2012

  Actual Average Record
Temperature  
Mean Temperature 44 °F -  
Max Temperature 53 °F 49 °F 75 °F (1999)
Min Temperature 36 °F 31 °F 12 °F (1991)
Degree Days  
Heating Degree Days 20    
Moisture  
Dew Point 37 °F    
Average Humidity 79    
Maximum Humidity 89    
Minimum Humidity 57    
Precipitation  
Precipitation 0.00 in - - ()
Sea Level Pressure  
Sea Level Pressure 30.11 in    
Wind  
Wind Speed 5 mph (SSE)    
Max Wind Speed 8 mph    
Max Gust Speed -    
Visibility 5 miles    
Events      
Averages and records for this station are not official NWS values.
T = Trace of Precipitation, MM = Missing Value Source: NWS Daily Summary

Daily Weather History Graph

Daily Weather History Graph

Search for Another Location

Airport or City:

Trip Planner

Search our weather history database for the weather conditions in past years. The results will help you decide how hot, cold, wet, or windy it might be!

Date:

Astronomy

Nov. 09, 2012 Rise Set
Actual Time 7:24 AM EST 5:19 PM EST
Civil Twilight 6:54 AM EST 5:50 PM EST
Nautical Twilight 6:20 AM EST 6:24 PM EST
Astronomical Twilight 5:46 AM EST 6:57 PM EST
Moon 2:14 AM EST (11/9) 2:39 PM EST (11/9)
Length of Visible Light 10h 55m
Length of Day
9h 55m
Waning Crescent, 23% of the Moon is Illuminated
Nov 9
Waning Crescent
Nov 13
New
Nov 20
First Quarter
Nov 28
Full
Dec 6
Last Quarter

Hourly Weather History & Observations

Time (EST) Temp. Windchill Dew Point Humidity Pressure Visibility Wind Dir Wind Speed Gust Speed Precip Events Conditions
12:10 AM 36.3 °F 33.7 °F 32.7 °F 87% 30.12 in 5.0 mi SW 3.5 mph - N/A   Clear
12:30 AM 36.5 °F 32.7 °F 33.3 °F 88% 30.12 in 5.0 mi WSW 4.6 mph - N/A   Mostly Cloudy
12:50 AM 37.6 °F 33.1 °F 33.8 °F 86% 30.12 in 5.0 mi WSW 5.8 mph - N/A   Overcast
1:10 AM 37.8 °F 34.2 °F 34.0 °F 86% 30.12 in 5.0 mi WSW 4.6 mph - N/A   Overcast
1:30 AM 37.6 °F 34.0 °F 33.8 °F 86% 30.13 in 5.0 mi WSW 4.6 mph - N/A   Overcast
1:50 AM 38.3 °F 34.8 °F 34.2 °F 85% 30.13 in 5.0 mi WSW 4.6 mph - N/A   Overcast
2:10 AM 38.3 °F 34.8 °F 34.2 °F 85% 30.13 in 5.0 mi SW 4.6 mph - N/A   Overcast
2:31 AM 38.5 °F 36.1 °F 34.3 °F 85% 30.13 in 5.0 mi SW 3.5 mph - N/A   Haze
2:51 AM 38.3 °F 35.9 °F 34.3 °F 86% 30.13 in 5.0 mi SSW 3.5 mph - N/A   Overcast
3:11 AM 38.3 °F - 34.3 °F 86% 30.13 in 5.0 mi Calm Calm - N/A   Overcast
3:31 AM 38.3 °F 35.9 °F 34.3 °F 86% 30.13 in 5.0 mi SSW 3.5 mph - N/A   Overcast
3:51 AM 37.8 °F 34.2 °F 34.3 °F 87% 30.13 in 5.0 mi SSW 4.6 mph - N/A   Overcast
4:11 AM 37.0 °F 34.5 °F 34.0 °F 89% 30.13 in 5.0 mi SSW 3.5 mph - N/A   Overcast
4:31 AM 37.6 °F 35.1 °F 34.5 °F 89% 30.13 in 5.0 mi South 3.5 mph - N/A   Overcast
4:51 AM 37.6 °F 35.1 °F 34.3 °F 88% 30.13 in 5.0 mi South 3.5 mph - N/A   Overcast
5:12 AM 37.6 °F - 34.3 °F 88% 30.14 in 5.0 mi Calm Calm - N/A   Overcast
5:32 AM 37.6 °F - 34.7 °F 89% 30.14 in 5.0 mi Calm Calm - N/A   Overcast
5:52 AM 37.4 °F 34.9 °F 34.2 °F 88% 30.14 in 5.0 mi South 3.5 mph - N/A   Overcast
6:12 AM 36.9 °F 33.1 °F 34.0 °F 89% 30.14 in 5.0 mi South 4.6 mph - N/A   Overcast
6:52 AM 37.8 °F 33.3 °F 34.7 °F 89% 30.13 in 5.0 mi SSW 5.8 mph - N/A   Overcast
7:12 AM 37.9 °F 34.4 °F 34.7 °F 88% 30.13 in 5.0 mi SSW 4.6 mph - N/A   Overcast
7:32 AM 38.3 °F 33.2 °F 34.7 °F 87% 30.14 in 5.0 mi SSW 6.9 mph - N/A   Overcast
7:52 AM 38.3 °F 33.9 °F 34.7 °F 87% 30.15 in 4.0 mi SSW 5.8 mph - N/A   Overcast
8:13 AM 38.5 °F 35.0 °F 34.7 °F 86% 30.15 in 4.0 mi SSW 4.6 mph - N/A   Overcast
8:33 AM 38.8 °F 33.8 °F 34.9 °F 86% 30.15 in 4.0 mi SSW 6.9 mph - N/A   Overcast
8:53 AM 39.0 °F 34.8 °F 34.9 °F 85% 30.15 in 4.0 mi SSW 5.8 mph - N/A   Overcast
9:13 AM 39.2 °F 35.9 °F 35.1 °F 85% 30.15 in 4.0 mi SSW 4.6 mph - N/A   Overcast
9:33 AM 39.9 °F 35.8 °F 35.6 °F 85% 30.15 in 4.0 mi South 5.8 mph - N/A   Overcast
9:53 AM 40.6 °F 36.7 °F 36.0 °F 83% 30.15 in 4.0 mi SSW 5.8 mph - N/A   Haze
10:13 AM 41.9 °F 38.2 °F 36.7 °F 82% 30.15 in 4.0 mi South 5.8 mph - N/A   Haze
10:34 AM 42.8 °F 38.6 °F 37.0 °F 80% 30.15 in 4.0 mi SSW 6.9 mph - N/A   Haze
10:54 AM 43.9 °F 41.3 °F 37.6 °F 78% 30.16 in 4.0 mi SSW 4.6 mph - N/A   Haze
11:14 AM 45.1 °F 41.4 °F 38.1 °F 76% 30.15 in 5.0 mi SSW 6.9 mph - N/A   Haze
11:34 AM 46.8 °F - 38.8 °F 74% 30.14 in 5.0 mi South 4.6 mph - N/A   Haze
11:54 AM 49.1 °F - 39.0 °F 68% 30.13 in 5.0 mi South 5.8 mph - N/A   Haze
12:14 PM 50.0 °F - 38.8 °F 66% 30.12 in 5.0 mi South 8.1 mph - N/A   Haze
12:29 PM 50.5 °F - 38.7 °F 64% 30.11 in 7.0 mi SSE 6.9 mph - N/A   Overcast
12:49 PM 50.2 °F - 38.5 °F 64% 30.10 in 7.0 mi SSE 8.1 mph - N/A   Overcast
1:09 PM 50.9 °F - 38.5 °F 62% 30.09 in 7.0 mi SSE 4.6 mph - N/A   Overcast
1:30 PM 52.0 °F - 38.1 °F 59% 30.09 in 7.0 mi SSW 4.6 mph - N/A   Overcast
1:50 PM 51.6 °F - 37.6 °F 59% 30.09 in 7.0 mi SSE 4.6 mph - N/A   Mostly Cloudy
2:10 PM 51.6 °F - 38.1 °F 60% 30.09 in 7.0 mi SSW 3.5 mph - N/A   Overcast
2:30 PM 52.0 °F - 38.1 °F 59% 30.09 in 7.0 mi Calm Calm - N/A   Overcast
2:50 PM 53.1 °F - 37.9 °F 57% 30.08 in 7.0 mi SE 4.6 mph - N/A   Mostly Cloudy
3:10 PM 52.0 °F - 38.1 °F 59% 30.08 in 7.0 mi Calm Calm - N/A   Mostly Cloudy
3:30 PM 51.8 °F - 38.8 °F 61% 30.08 in 7.0 mi East 3.5 mph - N/A   Overcast
3:50 PM 51.8 °F - 39.0 °F 62% 30.08 in 7.0 mi East 3.5 mph - N/A   Overcast
4:11 PM 51.4 °F - 40.1 °F 65% 30.08 in 7.0 mi Calm Calm - N/A   Overcast
4:31 PM 50.4 °F - 40.1 °F 68% 30.07 in 7.0 mi East 4.6 mph - N/A   Overcast
4:51 PM 49.3 °F - 40.3 °F 71% 30.08 in 7.0 mi ENE 8.1 mph - N/A   Overcast
5:11 PM 48.0 °F - 40.1 °F 74% 30.08 in 5.0 mi ENE 8.1 mph - N/A   Haze
5:31 PM 46.9 °F - 40.5 °F 78% 30.07 in 7.0 mi ENE 6.9 mph - N/A   Overcast
5:51 PM 46.9 °F - 40.3 °F 78% 30.08 in 7.0 mi NE 5.8 mph - N/A   Overcast
6:11 PM 44.8 °F 41.6 °F 39.2 °F 81% 30.08 in 5.0 mi ENE 5.8 mph - N/A   Haze
6:31 PM 44.1 °F 40.1 °F 39.6 °F 84% 30.08 in 5.0 mi ENE 6.9 mph - N/A   Mostly Cloudy
6:52 PM 45.1 °F 41.4 °F 40.1 °F 82% 30.09 in 5.0 mi ENE 6.9 mph - N/A   Haze
7:12 PM 45.1 °F 41.4 °F 39.9 °F 82% 30.09 in 5.0 mi ENE 6.9 mph - N/A   Haze
7:32 PM 45.5 °F 41.3 °F 39.7 °F 80% 30.10 in 5.0 mi NE 8.1 mph - N/A   Haze
7:52 PM 45.0 °F 41.2 °F 39.7 °F 82% 30.09 in 5.0 mi NE 6.9 mph - N/A   Haze
8:12 PM 44.6 °F 41.4 °F 39.7 °F 83% 30.10 in 5.0 mi NE 5.8 mph - N/A   Haze
8:32 PM 44.6 °F 40.7 °F 39.6 °F 82% 30.10 in 5.0 mi NE 6.9 mph - N/A   Haze
8:52 PM 44.1 °F 40.1 °F 39.4 °F 84% 30.10 in 5.0 mi NE 6.9 mph - N/A   Haze
9:12 PM 43.7 °F 41.1 °F 39.4 °F 85% 30.10 in 5.0 mi NE 4.6 mph - N/A   Haze
9:33 PM 43.9 °F 41.3 °F 39.2 °F 84% 30.11 in 5.0 mi NE 4.6 mph - N/A   Haze
10:13 PM 44.1 °F 41.5 °F 39.6 °F 84% 30.11 in 5.0 mi NE 4.6 mph - N/A   Overcast
10:33 PM 43.9 °F 41.3 °F 39.7 °F 85% 30.10 in 5.0 mi ENE 4.6 mph - N/A   Overcast
10:53 PM 44.4 °F 42.9 °F 39.6 °F 83% 30.11 in 5.0 mi NE 3.5 mph - N/A   Overcast
11:13 PM 44.2 °F 41.8 °F 39.6 °F 84% 30.10 in 5.0 mi ENE 4.6 mph - N/A   Overcast
11:33 PM 44.2 °F 42.7 °F 39.6 °F 84% 30.10 in 5.0 mi NE 3.5 mph - N/A   Overcast